Theta_e
341 343 345 347 348 351 353 354 353 354 356 356 354 353 353 352 353 352 355 357 356 355 354 352 351 352 352 349 348 351 354 355 352 353 351 352 355 355 361 357 363 366 366 365 364 363 363 362 364 363 364 364 363 362 359 360 363 361 359 364 356 355 354 354 354 352 348 342 346 343 346 347 348 348 347 346 347 348 350 350 351 353 355 355 361
341 342 344 346 348 350 352 353 355 352 355 354 353 350 352 352 352 353 354 355 355 354 353 352 353 352 350 348 349 350 352 351 350 351 349 351 361 362 360 358 362 363 366 367 366 363 362 361 363 364 362 366 365 365 363 362 364 362 359 356 359 354 353 353 355 352 345 339 338 339 339 345 347 343 343 343 345 347 349 352 355 349 349 352 356
340 341 343 345 348 349 351 352 353 354 353 352 354 351 351 352 353 352 353 352 353 354 353 352 354 355 353 353 353 351 352 352 349 350 351 351 354 357 359 361 362 362 365 365 363 362 362 362 363 364 365 366 364 365 365 362 361 359 360 356 354 355 353 354 356 355 346 346 347 341 336 335 342 341 344 343 344 345 347 347 349 347 350 353 356
338 341 341 344 347 349 351 351 353 352 352 352 352 351 351 354 354 353 353 354 354 355 354 355 355 357 359 359 358 355 351 351 353 353 353 352 351 355 360 362 360 360 361 361 363 363 364 364 364 364 366 367 364 363 362 361 361 361 357 358 359 351 352 354 356 356 353 348 341 340 341 335 331 336 341 343 343 344 344 343 347 346 348 353 356
340 340 343 343 346 347 350 351 352 351 349 351 351 351 349 351 353 354 354 354 354 355 355 357 356 356 358 360 358 357 355 353 352 348 351 353 353 353 354 358 360 359 363 363 362 366 367 366 365 365 366 367 365 363 361 360 359 360 361 361 360 353 351 353 355 354 356 355 349 344 341 337 340 340 339 340 341 340 343 344 347 346 346 350 349
340 341 343 343 345 347 350 351 351 350 349 350 351 351 352 353 355 355 355 354 355 357 357 357 355 354 353 351 348 347 345 344 342 343 344 348 349 351 353 354 356 358 360 364 365 367 368 366 366 365 364 367 364 361 362 357 361 361 363 359 360 361 358 352 351 359 353 359 356 351 350 341 340 344 338 339 350 347 344 345 348 347 348 348 354
340 342 343 343 345 347 349 350 350 350 350 350 350 351 353 355 356 356 355 356 355 359 358 357 356 355 352 348 348 345 343 342 347 346 346 348 351 352 353 355 359 358 361 363 365 365 365 366 366 364 365 364 364 362 361 357 357 360 362 363 362 363 361 355 351 350 358 356 353 353 353 352 349 343 340 341 340 346 345 344 345 347 348 347 348
340 341 343 344 346 346 348 349 350 349 350 349 348 350 353 356 358 357 358 357 357 359 359 359 356 354 353 349 348 345 342 344 348 350 352 354 351 353 353 354 358 358 360 364 363 363 364 364 367 364 363 365 362 360 358 359 361 363 362 364 363 365 362 356 355 355 352 353 355 352 353 353 351 348 348 343 340 338 341 345 346 347 347 345 347
340 340 342 343 345 346 348 348 350 350 349 348 348 349 353 356 358 358 358 359 358 360 359 358 357 355 352 350 348 348 346 347 350 352 352 354 353 354 357 357 359 360 361 360 363 362 363 363 365 364 364 366 365 362 361 360 360 362 364 363 365 364 364 361 359 356 352 350 355 357 352 350 349 351 349 350 345 342 337 337 339 345 348 348 352
340 341 343 344 346 347 348 349 350 350 350 350 348 349 351 355 357 358 358 358 359 361 359 357 358 356 351 350 352 349 349 350 349 350 352 354 353 355 356 357 355 357 359 360 363 363 363 364 361 363 364 362 362 363 365 362 361 363 363 363 367 366 366 361 359 358 356 355 352 354 354 352 350 347 347 348 347 350 342 339 341 342 342 347 349
339 341 343 345 347 348 349 347 349 350 352 350 349 349 350 352 356 358 359 357 358 360 358 356 357 356 353 353 353 351 350 352 351 352 352 354 354 353 354 356 356 357 358 362 360 361 363 363 362 363 365 366 362 363 363 360 360 362 361 364 365 365 362 362 360 360 358 358 354 353 352 349 350 349 348 348 347 343 341 340 342 344 340 340 348
339 340 341 344 347 347 348 348 349 350 351 350 350 349 350 351 354 356 358 359 359 358 358 355 354 355 354 356 354 352 352 349 351 351 351 354 352 352 356 356 358 357 360 360 362 359 363 361 364 366 366 364 361 362 363 362 362 362 363 364 365 365 365 362 360 359 357 358 357 353 352 352 351 349 350 350 349 348 346 343 340 343 343 344 345
340 339 341 343 345 346 346 347 350 350 350 350 349 350 351 352 354 355 357 359 360 358 358 358 356 356 355 355 355 355 355 353 352 351 352 352 352 354 357 358 359 358 358 357 357 359 363 361 364 364 365 366 366 365 365 364 363 360 364 362 364 364 365 365 362 361 359 356 354 355 354 352 350 352 351 349 349 350 349 346 347 348 344 345 349
340 339 339 342 346 347 347 348 349 350 350 350 350 351 352 351 354 354 357 359 360 359 359 359 358 358 358 357 356 356 355 354 354 352 354 356 356 357 355 354 356 356 356 359 359 359 359 362 363 364 368 368 369 370 367 365 366 364 364 364 362 365 366 366 365 363 363 361 360 357 356 354 354 355 354 353 352 350 348 348 349 350 350 345 348
340 341 339 340 345 348 347 348 350 351 349 349 349 351 353 352 353 355 356 358 359 358 359 359 358 359 359 357 357 356 353 354 356 355 356 355 354 355 358 356 355 358 358 362 364 363 363 364 364 365 366 367 370 368 363 365 366 367 365 367 367 365 366 364 361 361 357 359 361 360 358 358 356 357 355 357 355 353 352 352 352 349 347 346 346
341 341 341 341 344 348 348 349 350 350 351 350 349 351 352 353 355 355 356 357 357 360 358 358 359 358 360 358 356 357 357 356 357 358 358 358 358 358 359 361 360 360 362 364 362 362 363 363 364 363 365 365 367 368 367 365 368 364 366 367 366 362 364 365 365 362 360 360 360 361 360 357 359 357 358 356 356 357 357 358 357 355 350 346 345
339 340 341 343 343 346 347 349 349 350 350 350 351 352 354 354 354 355 356 356 356 358 357 358 358 357 358 357 355 356 355 355 354 355 354 356 360 359 357 357 359 362 359 362 363 365 365 364 363 362 364 366 367 367 366 367 367 365 363 364 362 362 365 366 364 363 363 360 359 358 358 358 359 361 358 356 358 362 361 360 358 355 357 351 347
339 341 345 345 345 345 346 347 348 349 349 350 352 353 355 355 354 354 355 355 354 355 354 355 357 356 357 356 355 355 353 353 354 354 354 356 356 358 359 357 358 358 358 357 360 362 364 363 363 363 364 365 366 366 366 367 368 367 364 366 365 367 365 366 365 363 362 361 360 359 358 356 360 359 358 358 360 361 357 357 357 357 358 354 352
339 340 343 345 346 346 347 347 346 348 351 351 352 352 353 354 353 352 352 353 353 352 353 354 355 353 354 355 354 354 354 354 354 357 357 355 354 355 354 356 357 359 361 362 362 359 361 362 363 363 363 363 364 365 366 367 368 366 364 363 365 368 366 365 366 365 361 361 362 361 361 361 365 364 362 357 358 359 358 357 356 358 358 360 359
340 339 340 342 346 348 348 347 346 347 350 351 351 351 350 352 352 351 351 352 353 351 352 352 353 352 351 354 355 357 357 354 355 355 353 354 354 353 354 353 354 357 358 359 358 358 357 359 359 358 357 360 361 361 363 365 368 367 364 360 360 365 366 368 364 362 358 360 358 360 364 364 365 365 363 362 363 363 363 360 359 358 361 362 361
343 342 341 339 341 344 346 348 348 348 350 351 351 352 351 352 351 351 351 350 349 350 350 352 351 351 353 352 352 354 354 354 354 354 353 353 352 354 353 354 356 356 357 357 356 357 358 357 357 361 359 362 363 365 364 365 366 368 367 367 366 366 366 364 365 365 363 360 361 362 365 366 367 364 364 363 360 361 362 361 362 359 357 361 359
347 347 345 343 342 343 343 346 349 348 348 350 351 353 351 351 352 353 353 352 350 349 351 352 353 351 350 350 349 351 354 354 352 352 353 351 351 351 353 354 352 355 356 354 356 356 358 356 358 359 362 361 364 366 364 361 364 364 366 361 361 366 368 359 357 354 357 362 361 362 364 366 367 364 362 359 359 358 358 355 354 355 355 358 361
345 347 348 347 346 345 344 346 347 348 349 350 351 352 352 354 354 355 355 354 352 351 353 354 353 352 352 350 349 348 348 350 349 349 349 349 350 351 354 353 351 350 354 355 354 355 358 361 361 361 363 363 363 362 362 361 363 363 363 361 360 357 358 358 359 358 354 356 359 360 362 364 365 363 362 361 362 362 358 358 355 356 355 358 357
346 347 349 350 349 350 351 346 347 349 349 349 350 351 353 353 355 357 356 353 353 356 355 357 356 354 353 350 350 347 347 347 347 347 347 348 348 349 352 351 351 349 348 354 355 356 358 361 359 360 362 363 362 363 359 358 362 365 365 365 364 362 361 361 361 359 355 356 359 360 360 362 364 362 362 364 363 360 358 357 355 357 356 353 356
344 346 348 350 349 348 348 349 350 350 351 351 350 351 353 354 356 356 356 356 353 356 359 359 359 358 355 353 349 347 347 348 347 346 346 347 347 347 349 351 350 348 348 349 354 356 357 358 355 356 358 359 359 360 359 360 359 363 364 363 365 365 363 365 365 358 356 358 360 359 360 362 362 359 361 361 361 360 358 357 355 355 358 358 356
343 345 347 347 348 350 349 348 350 351 351 352 353 353 354 354 356 357 358 359 356 355 356 360 362 360 358 357 354 352 350 350 351 348 347 347 347 347 349 349 351 349 350 349 349 352 353 355 356 356 358 360 362 362 362 363 361 361 362 364 365 363 362 362 363 358 357 360 360 362 363 362 361 361 361 361 362 361 358 354 353 355 356 356 356
342 343 346 347 349 349 348 349 348 351 353 352 352 354 356 356 356 358 358 359 359 356 358 361 362 361 361 360 359 357 355 353 354 352 349 349 348 347 348 348 350 350 350 348 348 351 352 352 354 355 359 362 363 362 367 367 367 366 366 364 364 364 363 364 364 364 362 361 360 362 363 362 362 364 362 362 362 359 356 356 356 355 356 355 354
342 342 343 343 346 348 347 348 347 347 349 352 355 354 354 356 357 358 359 360 359 358 360 362 362 361 361 360 361 361 361 360 361 362 358 354 352 349 348 350 351 351 350 349 347 347 351 353 353 356 365 367 367 367 370 369 368 366 365 363 363 364 364 363 364 365 365 364 363 359 358 359 362 363 362 362 362 360 359 355 352 352 352 349 348
340 341 342 343 345 347 348 348 347 349 349 350 352 354 354 354 355 357 358 359 360 360 360 361 361 360 360 362 362 361 363 364 364 365 363 360 359 358 356 355 355 354 353 351 350 348 351 356 358 359 364 365 366 363 358 357 360 363 365 363 366 365 364 366 364 361 359 359 359 360 361 360 359 359 358 357 355 352 351 346 350 347 350 354 354
339 341 342 343 344 344 346 347 348 348 346 346 348 350 353 353 353 355 357 358 359 360 360 359 359 359 361 363 364 365 364 365 366 366 365 365 363 361 360 360 359 359 358 357 356 355 355 354 357 360 363 364 360 352 342 340 343 355 359 360 364 363 364 362 360 359 358 356 357 357 357 356 355 356 356 354 350 350 349 351 352 353 354 353 352
340 342 342 342 343 343 344 345 345 347 347 347 349 350 351 352 353 354 355 356 359 359 359 358 357 360 361 363 361 361 362 362 363 363 365 365 364 362 361 361 361 361 361 362 359 357 359 361 360 360 359 355 349 342 331 332 335 339 353 361 363 363 362 360 358 357 357 355 354 354 354 351 349 347 348 351 351 349 350 351 350 349 349 348 348
339 340 341 341 342 342 342 344 345 346 348 349 348 349 350 350 351 351 353 355 355 357 357 356 357 358 358 357 357 358 359 360 360 360 363 365 364 362 362 362 361 360 360 360 361 360 361 361 361 356 355 350 344 329 325 330 332 334 341 355 361 359 360 359 359 356 353 354 353 350 347 348 345 345 347 347 348 348 347 346 346 344 342 341 340
338 339 339 339 340 341 343 343 344 345 346 348 349 348 348 351 351 353 354 353 353 354 355 355 357 358 355 354 355 353 355 356 356 358 360 361 361 358 358 360 360 362 361 358 358 357 356 355 355 352 349 350 346 326 325 326 330 331 336 350 357 358 355 356 354 352 351 350 347 345 343 343 343 343 346 344 342 340 342 341 341 342 342 339 332
339 340 340 341 342 342 343 344 344 344 346 348 349 348 348 351 351 350 350 351 352 352 352 352 352 353 354 355 354 354 354 355 356 357 357 358 356 356 357 357 359 359 358 356 355 354 354 354 353 351 350 346 344 328 322 326 328 329 333 347 354 350 349 347 346 344 342 341 341 341 341 341 342 345 344 342 340 336 336 336 335 334 334 336 338
340 340 340 341 341 342 343 344 346 346 348 348 348 348 347 349 346 344 344 345 347 346 347 349 349 351 354 354 354 354 353 353 354 355 356 355 353 354 354 354 353 352 351 350 347 347 347 348 349 350 349 343 338 321 321 324 325 328 336 349 348 345 343 342 341 340 339 337 337 339 340 339 339 341 343 341 339 337 335 333 332 331 330 329 329
340 340 341 341 342 343 343 344 346 347 348 347 347 348 347 344 345 344 344 344 344 344 344 345 346 346 347 348 349 350 351 351 351 352 352 352 352 350 348 347 345 343 343 341 339 340 341 344 346 346 345 344 342 320 320 323 327 335 341 345 342 339 336 335 336 337 337 338 339 338 337 336 337 336 336 337 339 338 333 331 330 330 329 328 327
339 339 340 342 343 343 345 345 346 346 347 348 349 348 347 348 348 347 345 344 342 343 344 344 344 345 345 346 348 347 347 347 348 348 349 350 350 345 344 343 339 338 337 335 335 336 340 341 342 343 343 341 340 323 320 325 327 329 337 341 339 336 334 334 335 337 337 336 337 337 337 337 338 338 335 329 335 338 335 332 330 329 329 329 327
339 341 341 343 343 344 346 345 346 346 346 347 348 348 347 349 349 347 347 346 345 341 342 344 345 346 346 347 345 346 346 346 347 346 346 344 343 340 338 337 334 332 331 333 335 337 338 340 339 339 340 337 334 324 318 319 323 327 337 339 336 333 332 334 335 336 336 336 336 336 337 336 336 338 327 329 333 338 334 331 330 328 327 326 327
340 340 341 342 343 345 345 346 347 343 345 346 347 348 347 346 346 344 343 345 344 342 342 342 345 346 345 346 347 346 345 344 344 343 342 340 338 336 334 331 329 329 330 334 336 334 333 335 336 337 336 337 336 329 316 317 320 326 334 337 336 334 333 334 333 332 332 332 333 335 335 333 331 325 319 322 328 335 332 331 329 327 326 325 328
342 342 343 344 345 346 345 344 343 342 344 345 346 346 346 345 345 346 344 342 342 344 344 345 345 345 345 346 346 344 344 344 342 340 337 334 332 330 329 329 329 330 330 332 333 332 329 331 334 335 336 335 334 332 325 316 319 321 327 338 338 334 332 333 334 332 331 331 332 331 326 318 317 316 315 316 319 325 333 332 331 329 327 326 329
342 342 343 343 343 342 341 341 342 344 345 345 344 344 343 344 345 345 343 342 343 344 343 342 342 340 340 339 339 339 338 338 339 337 336 333 331 330 331 332 332 332 331 329 329 329 329 332 335 335 335 334 333 333 327 314 315 319 325 333 337 335 334 333 332 332 331 330 329 328 325 318 313 313 312 312 314 318 327 333 332 331 328 330 330
343 343 343 342 341 341 341 340 341 342 343 344 345 343 342 342 343 341 340 341 341 340 340 339 337 336 335 335 336 339 339 335 333 332 330 329 331 333 334 333 332 330 328 326 327 327 327 329 333 335 334 332 333 334 335 320 315 316 321 327 335 336 334 332 329 329 328 328 328 326 324 317 312 311 311 310 310 314 319 326 325 313 316 322 329
340 340 340 340 339 338 335 337 340 343 345 346 345 343 342 342 340 341 341 341 340 338 337 336 334 333 333 333 334 335 334 333 331 332 331 331 333 332 333 332 331 330 328 327 328 328 329 330 331 332 333 334 334 333 329 329 318 315 316 320 324 332 325 334 331 329 328 327 327 325 322 316 308 307 307 309 310 313 319 319 310 313 315 320 325
339 339 338 338 338 337 337 336 338 341 345 345 343 341 341 339 338 341 341 341 339 337 337 335 334 333 332 333 335 334 333 333 332 332 332 332 333 334 333 332 332 331 329 330 332 331 329 328 329 330 333 334 336 335 328 326 324 314 312 312 314 319 324 332 333 329 327 326 324 323 317 307 305 304 305 307 309 315 317 307 310 314 318 322 323
338 338 338 339 338 337 338 338 338 339 341 342 343 340 339 337 338 340 339 338 337 336 335 334 333 332 332 333 334 335 335 335 334 333 332 332 332 333 332 333 332 331 331 330 331 331 330 329 328 329 330 332 333 333 331 324 320 318 315 314 316 317 318 319 330 330 328 324 316 308 307 308 308 308 309 312 313 313 310 310 311 315 320 320 320
336 337 339 339 338 338 340 340 340 341 341 342 342 342 340 339 340 339 339 338 337 335 334 333 334 334 333 333 332 333 334 335 335 334 333 332 331 330 329 330 329 328 330 330 330 330 330 329 328 328 330 331 332 333 332 331 328 326 321 316 316 318 323 323 324 323 319 314 311 310 310 311 314 317 322 322 320 320 315 317 318 320 320 318 318
334 335 339 339 338 337 337 338 339 339 339 339 340 339 340 341 341 340 340 339 337 335 334 334 333 332 334 333 331 329 328 328 328 327 327 328 329 328 327 326 325 324 325 326 329 331 330 328 327 327 330 332 332 333 334 334 333 330 327 326 325 323 321 320 324 324 322 322 321 320 318 314 314 316 319 319 319 321 319 319 318 318 318 318 317
336 338 339 339 337 336 336 337 337 337 337 337 337 337 339 339 339 340 339 338 337 336 335 334 331 329 328 327 327 328 327 326 326 325 323 324 325 326 326 327 327 327 325 325 328 330 330 329 327 327 328 330 330 332 333 333 331 330 329 328 328 328 328 326 322 320 319 318 318 318 319 323 322 321 319 319 319 320 319 319 318 318 317 318 317
336 337 339 339 338 337 337 336 336 338 337 337 336 336 337 339 340 341 340 338 336 336 335 331 329 327 324 324 322 323 323 323 323 322 318 314 314 321 330 328 321 318 321 329 330 330 331 331 329 328 328 329 330 331 331 314 330 317 335 333 332 329 327 323 322 315 323 324 324 321 319 318 319 318 318 318 317 316 316 316 315 316 316 315 315
337 337 338 338 338 338 336 337 338 339 338 338 337 338 338 337 339 340 339 337 335 333 331 330 330 328 327 325 322 320 320 319 319 320 320 316 309 300 305 320 320 311 304 299 309 326 329 333 332 332 329 331 330 328 306 301 301 301 302 304 307 308 311 319 318 315 324 321 320 319 319 319 318 318 316 316 316 316 316 316 315 316 314 313 312
337 336 336 336 336 337 337 337 338 339 339 338 338 338 340 340 340 340 339 337 336 333 332 330 331 331 330 329 327 326 326 325 322 322 324 324 322 316 298 296 303 304 299 297 297 299 305 314 332 328 317 305 306 302 299 299 299 299 300 301 303 304 305 306 309 327 322 320 320 319 318 318 317 317 317 316 316 315 315 315 314 314 314 313 312
Wind_Speed
6 6 7 7 8 8 7 7 7 8 7 9 9 9 8 8 9 9 8 8 8 8 7 7 7 6 6 7 7 6 5 5 6 5 6 5 6 5 4 5 4 4 3 2 2 1 0 1 1 1 1 2 1 1 2 3 3 3 2 1 5 3 3 3 3 4 3 2 1 3 3 2 3 2 2 3 3 3 2 3 1 3 1 2 2
6 7 8 8 8 9 8 7 8 9 9 9 9 9 9 9 9 9 8 8 8 8 7 7 6 6 7 7 6 7 6 6 6 6 6 6 5 4 4 3 3 3 3 3 2 1 1 1 1 1 1 2 2 1 1 1 0 2 3 3 4 2 3 3 5 6 3 2 2 2 3 3 1 4 4 5 3 3 3 3 2 4 2 2 2
7 8 9 9 10 10 8 8 8 9 10 10 9 9 9 9 8 8 8 8 8 8 7 7 7 7 6 6 6 6 6 6 6 5 5 6 7 5 3 3 3 3 3 2 2 2 1 1 1 2 1 1 0 0 2 1 1 0 1 2 5 3 3 1 1 4 4 3 1 4 2 4 3 4 3 3 3 4 3 3 3 4 1 1 2
9 8 10 10 11 10 9 9 8 8 9 9 10 10 9 8 9 9 8 8 8 8 8 8 8 7 4 5 4 4 6 5 3 4 4 4 6 6 4 4 3 3 3 3 2 1 1 1 1 1 1 1 1 0 0 1 1 2 1 1 2 5 2 1 2 1 5 5 3 3 4 3 4 2 4 1 3 5 3 6 1 5 4 2 4
9 10 9 10 11 11 10 9 9 9 9 10 9 10 7 10 10 10 9 9 8 9 9 8 8 8 6 5 5 3 5 5 5 6 6 4 4 5 5 4 4 3 2 2 2 1 0 1 1 1 0 1 1 1 1 1 1 0 2 1 1 3 3 2 2 3 0 4 5 4 3 3 2 5 5 5 4 4 2 4 1 4 6 3 4
9 9 10 10 11 11 11 11 10 9 9 10 9 10 9 10 11 10 8 8 8 10 10 9 8 8 7 7 7 6 6 6 7 6 7 7 6 5 5 5 5 4 3 2 1 1 1 1 2 3 2 1 1 2 2 1 3 3 3 1 2 2 3 3 3 2 2 1 3 3 1 5 5 5 6 3 4 5 5 4 4 4 5 5 2
9 9 9 10 11 11 12 11 10 9 10 10 9 9 9 10 11 10 9 8 9 10 11 9 8 8 8 8 7 7 6 6 5 6 6 6 5 4 3 4 4 4 4 3 2 2 2 1 2 3 3 2 2 2 3 3 1 1 1 1 1 2 1 2 1 5 1 4 4 2 2 4 4 4 4 5 5 3 5 6 5 5 5 6 5
9 10 11 11 11 12 13 12 11 9 10 10 10 10 10 10 11 11 8 8 8 9 10 8 8 8 8 8 8 7 8 6 6 5 4 3 4 4 4 5 5 4 3 3 3 3 3 3 3 3 3 3 2 3 3 2 1 1 1 0 1 1 1 2 3 4 3 3 1 5 4 2 3 6 5 5 6 6 5 5 5 4 5 6 4
11 10 11 11 12 12 11 11 11 10 10 10 10 10 10 10 10 10 9 9 8 10 10 9 7 8 8 7 6 6 6 6 6 6 4 4 4 4 4 3 4 4 4 4 4 4 4 4 3 3 3 3 3 3 3 1 1 0 1 2 3 2 2 1 2 3 5 4 1 3 4 5 5 4 4 5 5 6 7 7 7 6 5 5 3
11 11 11 11 12 12 12 11 11 10 9 10 10 10 11 10 10 11 10 9 9 10 9 10 9 8 8 8 8 7 6 5 6 6 5 5 5 5 4 4 4 5 6 5 4 5 4 4 5 5 5 4 4 2 2 2 3 3 3 3 1 2 1 3 3 3 4 5 5 2 3 5 5 6 6 6 5 4 7 7 7 7 6 4 5
11 11 11 11 11 10 11 12 11 11 9 10 10 11 11 11 12 11 11 9 10 10 10 10 9 9 8 8 9 9 8 7 6 6 6 5 5 6 6 5 5 4 4 5 6 6 6 5 5 5 4 2 3 3 4 4 4 4 3 2 3 3 2 3 3 4 4 4 6 4 4 6 5 4 6 6 6 7 7 8 8 6 8 8 5
11 11 11 11 11 11 11 11 12 12 11 11 11 11 11 12 12 12 12 10 10 11 11 10 9 9 9 9 9 9 9 7 8 8 7 7 7 6 4 4 4 5 4 4 5 6 5 5 5 5 4 4 4 4 4 3 3 3 2 2 3 2 3 3 4 4 5 4 5 6 5 5 6 5 6 5 5 5 6 8 8 7 7 6 6
11 11 10 10 11 12 13 12 12 12 11 12 12 11 12 12 14 13 13 12 11 11 12 11 10 9 9 9 9 8 9 8 8 8 7 7 6 6 5 5 5 4 5 5 5 6 5 5 5 4 3 3 2 3 3 3 4 3 3 3 3 2 3 3 3 4 5 5 6 5 5 6 6 5 5 6 6 5 6 7 7 7 8 7 6
11 12 11 11 11 13 13 13 13 13 14 13 12 11 11 11 14 14 14 13 11 12 12 12 11 10 10 9 9 8 8 8 7 7 7 6 6 6 6 6 6 6 5 5 4 5 6 5 5 6 5 4 3 4 4 4 3 4 3 4 4 3 2 3 5 5 4 5 5 5 6 6 6 6 6 6 6 6 6 7 7 7 8 9 8
11 11 12 12 13 13 13 13 14 13 14 14 13 12 11 12 13 14 14 14 13 12 12 12 11 11 10 10 9 9 9 8 7 7 7 7 7 7 5 5 5 5 4 4 4 4 4 4 5 6 5 5 4 4 4 4 4 4 4 4 4 3 3 4 4 5 5 5 5 5 5 6 6 5 6 6 6 6 6 7 7 7 7 8 7
10 11 12 13 13 13 12 13 13 13 14 13 14 13 12 12 13 15 15 15 15 13 12 12 11 11 11 11 11 10 8 8 7 6 6 6 6 5 5 5 4 3 4 3 5 5 5 5 6 6 5 5 5 5 4 4 3 4 4 4 5 4 4 4 5 6 6 6 6 5 5 6 5 6 6 6 6 6 6 6 6 6 7 8 7
10 11 11 12 13 13 12 13 13 13 13 14 14 14 14 13 13 15 15 14 15 15 14 12 12 11 12 12 12 11 10 10 9 10 9 8 6 6 6 6 6 4 4 6 6 5 5 5 5 5 5 4 5 5 5 4 4 4 4 4 5 6 4 4 5 5 5 6 6 6 5 6 5 5 6 7 8 7 6 6 6 7 6 7 9
11 12 10 11 11 13 13 12 13 14 15 15 16 15 14 14 14 15 15 15 15 15 15 13 13 13 12 13 13 12 11 11 10 10 9 8 8 7 6 6 6 6 6 4 4 5 5 5 5 5 4 5 4 4 5 5 4 5 5 5 5 5 6 5 5 6 6 5 5 6 6 5 5 2 4 5 5 6 7 7 6 7 6 8 8
5 5 5 7 10 11 12 12 13 14 14 15 14 12 12 14 14 15 16 15 15 13 14 12 13 11 11 13 14 13 12 11 10 9 8 8 9 9 8 7 7 6 5 4 4 5 6 6 6 6 6 6 6 6 5 5 5 5 6 5 6 6 6 6 5 6 5 6 4 5 4 3 4 3 5 7 6 7 7 7 7 5 6 8 8
7 7 5 6 8 10 11 12 11 11 12 12 14 14 15 14 14 14 14 14 14 14 13 13 13 12 11 12 13 12 12 11 10 10 9 9 8 8 8 9 8 6 6 7 7 6 6 6 7 8 7 7 6 7 7 6 6 5 6 6 5 3 5 6 6 6 5 6 3 3 4 5 4 4 5 6 6 6 7 7 7 8 7 8 8
5 6 7 7 6 7 9 10 10 11 10 11 12 14 12 11 13 14 14 15 15 14 13 12 12 12 13 13 13 13 14 12 12 10 10 9 8 8 8 7 7 7 5 6 7 7 6 6 7 6 6 5 4 4 3 4 4 5 5 5 5 5 5 7 7 5 2 3 0 5 6 4 4 6 5 5 6 7 8 7 7 8 8 8 8
3 5 7 8 9 8 7 9 9 9 10 12 11 11 14 14 13 13 12 13 14 14 12 12 11 11 13 13 13 12 12 11 13 12 11 10 9 9 8 8 8 7 7 7 7 7 7 7 7 7 7 6 6 6 6 7 7 6 7 6 6 3 3 5 8 4 6 3 3 5 5 5 5 6 7 7 7 8 8 8 8 7 9 7 7
3 5 5 6 7 7 7 8 9 10 10 11 11 11 13 13 12 11 11 12 12 12 12 11 11 11 12 12 12 12 12 13 13 12 12 11 10 9 9 9 8 8 8 7 7 8 6 5 6 5 5 5 5 6 7 8 6 6 6 6 5 3 3 5 2 3 1 6 5 5 5 6 5 6 6 7 6 6 8 8 8 9 9 10 9
4 4 5 6 6 5 3 6 7 8 9 10 10 10 10 12 12 12 14 15 13 10 10 11 11 12 13 12 11 11 13 13 13 12 12 11 10 9 8 9 9 8 8 7 7 7 6 6 6 6 6 5 5 5 4 8 9 6 6 3 3 4 5 6 5 5 6 7 7 7 7 6 6 7 6 6 5 6 7 7 7 5 4 9 9
4 4 5 6 6 6 5 5 6 7 8 9 10 10 10 10 11 12 11 12 11 9 8 10 11 12 12 11 12 12 12 12 12 11 12 11 10 9 8 9 9 9 9 8 7 7 7 7 7 7 7 7 7 6 5 5 11 6 4 5 6 7 7 6 5 6 6 7 8 8 7 6 6 7 7 6 6 7 6 6 8 7 6 4 5
3 4 4 6 6 5 5 5 5 7 7 8 8 9 10 11 11 11 10 10 11 11 11 11 10 11 10 11 11 10 10 11 11 11 11 10 10 10 10 8 8 9 9 8 8 7 7 7 7 7 6 6 5 5 7 9 8 5 4 4 5 5 5 5 5 6 7 7 7 7 6 6 7 7 7 7 7 7 5 6 9 9 7 8 6
3 3 3 3 5 8 7 4 1 1 3 4 6 7 8 10 11 11 10 11 11 11 11 11 11 11 10 10 10 10 9 9 9 10 9 9 10 10 10 9 8 9 9 9 8 8 7 7 7 6 5 3 2 3 2 2 3 3 3 4 5 4 4 5 6 7 8 7 6 5 6 6 7 7 8 7 6 8 6 6 6 7 9 8 7
2 2 3 3 4 5 7 7 5 3 1 1 2 4 6 8 9 10 10 10 9 11 11 11 11 10 10 11 10 9 8 8 8 8 8 8 9 10 9 8 8 9 8 8 9 8 7 7 7 6 4 2 1 0 1 2 2 2 2 3 2 3 2 2 1 3 3 2 4 5 6 6 7 7 8 7 7 7 6 5 5 7 8 9 9
2 2 2 3 3 3 5 7 7 6 6 5 4 4 5 6 7 9 10 10 10 10 11 11 10 10 10 10 10 9 8 7 7 6 7 8 8 8 7 7 7 7 6 7 8 8 7 5 4 2 1 1 2 4 5 4 4 4 3 2 1 0 1 2 4 3 3 4 5 4 4 5 7 10 13 11 10 11 7 5 5 3 6 3 3
1 1 2 1 0 1 1 3 5 6 6 4 3 3 4 6 8 9 9 10 10 11 11 11 10 10 10 10 9 9 9 8 7 7 7 7 7 7 6 6 6 6 7 6 6 5 6 7 5 4 3 2 4 4 6 8 7 5 5 3 2 3 2 1 2 3 5 4 4 4 3 11 12 14 19 18 15 11 8 3 3 1 2 1 1
1 2 3 3 4 2 2 1 2 3 4 6 5 4 5 5 6 8 9 9 10 11 10 10 10 10 9 8 6 6 7 8 9 8 7 7 7 7 7 7 7 7 7 6 6 6 5 3 1 3 3 4 4 5 7 6 7 8 7 4 3 1 1 0 1 2 1 1 3 2 3 8 8 10 12 16 10 6 8 16 19 19 14 8 4
1 2 3 4 3 2 2 3 3 3 3 3 4 5 6 7 7 8 8 8 10 11 10 10 10 10 9 9 7 6 7 8 8 8 8 7 7 8 8 7 7 7 6 5 6 5 3 2 1 1 3 4 5 7 5 6 6 7 7 6 2 3 3 2 1 2 1 1 3 5 4 4 6 7 8 7 13 20 21 22 22 21 22 22 18
3 3 2 1 1 2 2 0 2 3 3 3 3 4 4 5 6 7 6 7 7 9 9 10 10 8 10 9 9 9 9 9 9 9 8 8 8 7 7 7 6 5 4 4 3 3 3 4 3 2 4 4 4 8 6 7 6 6 6 8 3 4 5 5 5 6 6 5 4 4 5 4 4 9 9 7 7 11 17 20 18 18 22 21 17
3 4 3 2 2 2 2 1 2 2 3 2 2 3 3 2 3 2 3 6 7 7 5 8 9 10 9 10 11 11 11 11 10 9 8 8 8 6 5 4 3 5 4 3 3 3 3 2 2 3 3 4 5 8 9 7 5 6 6 6 8 7 7 7 7 7 6 6 5 5 5 6 5 7 10 10 10 12 12 11 11 10 9 14 17
3 3 4 3 2 3 3 4 3 2 2 3 3 4 4 3 5 6 4 2 2 5 3 3 4 3 4 6 7 8 9 9 8 8 7 8 8 6 5 4 6 5 5 5 4 4 4 4 4 3 3 3 5 8 7 6 5 4 3 9 8 7 8 8 8 8 8 7 6 7 10 11 10 10 10 10 9 9 10 10 11 12 13 12 11
3 3 3 3 2 2 3 4 3 3 3 3 3 4 6 6 5 6 6 4 3 4 5 5 5 4 3 4 4 6 6 6 6 7 8 8 9 7 6 7 7 7 8 8 6 5 6 6 6 5 4 4 5 9 7 6 4 4 10 8 9 9 8 8 9 9 9 7 8 9 9 10 9 9 9 9 9 7 9 11 13 12 12 12 12
3 2 3 2 2 3 4 4 5 4 3 3 3 3 5 7 7 6 7 7 6 6 5 5 4 4 4 5 6 5 4 4 6 6 7 6 6 9 6 7 8 7 7 6 6 6 5 7 7 6 6 7 8 11 8 9 9 10 10 9 9 9 9 11 10 10 9 11 10 10 10 9 8 8 7 6 8 9 9 9 10 10 9 9 10
3 2 3 4 3 3 5 5 6 5 3 3 2 4 4 5 4 4 4 5 5 3 3 3 4 5 5 4 5 4 5 5 5 7 6 7 8 7 7 6 8 8 8 6 6 7 5 6 8 8 8 9 9 9 10 11 10 8 10 10 9 9 11 10 11 12 11 12 12 14 10 8 9 8 7 6 7 9 10 9 10 10 10 10 9
3 3 4 3 3 2 2 3 2 5 6 4 3 4 4 5 5 6 4 3 5 6 6 3 3 4 5 5 6 5 5 4 5 5 5 5 5 4 5 7 8 8 7 5 6 8 9 8 8 9 13 12 10 9 10 9 9 10 10 9 9 10 11 12 11 11 10 10 12 13 16 12 9 10 13 11 9 10 10 10 9 10 10 10 8
4 5 5 5 3 3 2 4 4 5 5 4 3 3 5 6 6 7 6 5 5 6 8 6 6 7 5 5 6 7 7 6 7 6 6 7 8 7 7 9 9 8 7 6 7 8 10 8 7 9 9 10 10 8 8 11 10 10 10 10 8 10 11 12 11 10 11 11 11 10 10 13 16 16 15 16 14 9 9 10 9 9 10 10 8
6 6 4 6 5 4 4 4 3 4 4 4 4 4 4 5 5 6 8 8 7 7 8 8 8 7 7 7 7 7 8 9 9 9 8 8 6 8 9 11 11 10 9 9 9 8 8 7 7 9 10 10 8 7 7 8 8 8 10 11 10 10 10 10 11 11 11 11 11 10 8 11 16 16 16 17 17 17 14 11 10 10 9 8 7
7 6 5 6 7 7 8 8 6 2 3 4 5 6 6 7 8 10 10 9 9 9 8 9 8 6 7 8 9 8 8 8 9 9 9 9 9 9 5 7 8 10 11 11 10 8 8 8 7 6 8 9 10 10 7 9 11 12 13 12 10 11 10 11 11 11 11 11 10 8 8 11 16 17 17 18 18 16 15 11 10 11 11 10 8
5 5 5 6 6 6 6 6 2 1 4 4 7 9 9 8 10 10 10 10 10 10 10 11 9 9 8 8 7 9 9 8 9 10 11 10 10 8 8 8 9 9 9 10 9 9 7 9 9 9 9 9 10 9 10 10 14 16 15 14 15 13 12 11 12 12 11 10 9 9 10 17 17 17 16 16 14 15 14 10 13 13 11 9 9
6 6 6 5 4 4 4 6 6 1 1 4 8 9 10 11 11 9 10 10 10 10 10 10 10 10 11 9 9 10 10 10 11 11 11 10 8 9 9 9 9 9 9 9 8 9 10 10 10 11 10 10 10 10 11 13 13 15 13 13 12 11 12 12 12 11 10 11 10 10 11 17 18 18 18 17 16 13 11 11 11 11 12 11 8
7 7 5 4 5 6 8 7 6 6 7 7 8 10 11 11 9 9 10 10 10 9 9 10 10 10 10 10 10 10 10 10 9 9 10 10 10 10 9 8 8 8 8 9 8 8 9 9 10 10 11 10 10 11 10 11 15 14 15 15 16 15 13 13 13 12 12 12 12 14 15 16 16 16 15 15 13 13 13 12 11 11 10 8 7
7 6 5 7 8 6 7 10 9 9 9 8 8 9 11 10 9 8 8 8 8 7 7 9 10 12 11 10 11 12 12 10 10 8 8 8 8 8 8 7 8 8 8 8 9 9 9 10 10 12 11 11 11 11 12 11 12 13 13 17 18 18 18 18 15 13 14 12 11 12 13 12 11 9 9 10 10 10 9 10 10 10 9 8 8
5 6 7 9 10 9 9 10 11 10 9 9 9 8 9 8 9 9 11 10 10 11 10 10 10 10 11 10 11 9 9 9 9 8 7 7 6 7 7 7 8 8 9 9 10 10 10 11 11 13 12 11 11 11 12 11 10 11 11 12 14 15 17 16 12 9 9 8 8 9 10 13 13 13 11 10 9 7 6 7 7 7 7 7 7
7 9 10 10 9 11 11 11 10 9 10 10 10 10 10 9 10 10 11 10 10 11 11 11 11 9 9 9 9 10 9 8 7 7 6 6 6 6 6 6 6 6 9 9 9 9 10 10 12 13 13 12 12 11 11 11 11 10 11 11 11 10 9 9 10 10 11 13 12 12 11 9 8 8 7 7 7 6 6 6 6 7 7 7 6
10 9 9 9 10 11 12 12 11 10 11 10 10 10 11 11 11 11 10 11 11 12 11 11 10 10 10 9 9 8 9 9 9 9 9 8 8 7 6 8 8 7 6 3 9 10 9 9 11 12 13 11 11 11 6 6 7 7 8 9 10 10 9 9 10 12 11 9 8 7 6 7 6 6 6 6 6 6 7 7 8 7 7 6 7
10 9 10 11 11 12 12 11 9 9 9 10 10 10 10 10 10 10 11 11 10 10 10 10 9 10 9 9 9 9 9 9 9 8 8 9 14 15 11 7 6 10 13 14 12 6 4 8 9 7 4 8 10 7 7 10 13 13 14 15 14 15 13 12 12 10 7 7 6 6 5 5 4 5 5 5 5 5 5 5 6 6 6 7 7
9 10 11 11 11 11 11 11 9 8 7 7 7 8 9 8 8 8 8 8 7 7 8 8 8 8 8 8 9 8 8 8 8 8 8 8 8 10 15 15 12 12 13 15 15 15 16 14 8 9 10 18 16 13 12 13 14 14 14 14 14 15 14 11 7 5 5 6 6 5 5 5 5 5 4 5 5 5 6 5 6 6 7 8 8
Wind_Direction
166 162 170 175 170 165 159 160 162 158 159 153 163 159 163 165 161 160 160 158 159 165 166 166 169 170 171 178 174 171 183 172 184 177 168 177 148 150 163 164 154 157 142 151 138 134 178 82 98 49 11 48 31 2 55 13 10 333 339 291 306 337 326 299 31 339 333 256 182 263 204 200 186 210 272 264 224 232 197 229 241 260 213 193 230
176 163 176 175 176 165 161 165 166 161 163 167 170 163 164 165 165 160 160 162 166 167 163 167 169 177 172 179 178 170 171 181 180 177 182 147 145 155 187 140 157 165 156 153 150 181 178 148 121 80 4 77 35 46 66 126 311 315 351 313 273 334 303 325 17 315 253 294 307 290 259 193 45 283 235 211 248 220 241 227 224 268 323 347 340
181 178 179 178 174 169 166 169 169 166 166 171 170 163 165 166 165 167 164 167 169 165 169 167 174 177 183 169 197 163 174 184 174 174 183 161 165 170 159 154 178 176 178 172 177 195 143 113 230 131 52 49 112 182 147 191 176 17 310 354 324 277 264 256 14 337 318 326 311 272 280 293 157 252 247 265 271 283 258 266 291 292 336 323 320
194 190 182 178 172 174 173 172 170 167 168 170 173 168 170 167 167 172 168 172 170 166 175 169 172 165 177 181 192 176 165 163 149 156 182 182 167 165 174 171 199 204 188 207 193 147 162 259 346 30 133 120 212 86 291 183 166 194 225 82 293 280 261 49 334 32 327 339 302 324 307 310 286 202 280 296 271 250 257 288 308 314 304 352 291
202 194 184 179 175 178 178 174 172 171 173 171 178 171 175 166 169 172 173 176 172 167 175 168 161 169 177 170 163 137 147 165 175 176 182 185 197 178 172 185 183 229 192 206 241 135 304 305 323 320 356 321 318 227 212 234 64 285 102 220 325 323 311 321 326 302 27 23 326 305 294 243 350 333 348 310 287 298 290 290 339 282 296 338 291
204 201 188 180 179 177 176 178 178 173 177 172 180 172 172 164 165 173 172 180 175 168 175 169 169 173 173 169 174 174 168 177 185 180 183 183 201 186 173 188 188 202 203 227 225 254 170 271 283 299 296 190 254 318 335 265 179 250 123 314 154 155 329 296 281 160 269 135 239 270 322 322 329 332 302 314 313 280 292 279 290 291 304 292 307
199 203 191 187 185 179 179 183 184 178 174 172 175 171 172 163 165 174 171 180 176 171 175 175 173 175 178 177 176 179 174 178 189 192 187 183 198 183 185 180 182 215 200 188 201 213 246 256 263 262 273 255 219 238 232 246 174 133 53 138 342 42 260 275 240 273 58 278 247 286 292 299 318 313 323 307 301 333 299 296 286 282 292 299 308
193 200 193 194 189 185 185 182 186 180 173 172 173 169 171 168 166 173 170 176 179 169 176 183 176 176 180 185 175 187 183 176 182 196 187 189 183 201 194 186 174 204 216 176 212 206 223 231 230 254 262 284 285 244 251 270 22 52 97 9 290 225 276 265 304 301 284 247 337 309 294 274 294 274 274 318 301 297 300 290 291 293 310 294 291
203 194 194 195 191 192 186 183 182 181 173 175 174 169 168 170 170 173 171 174 174 172 177 182 182 177 180 181 177 189 187 175 181 189 193 191 202 195 205 200 174 191 211 217 192 217 214 227 231 242 247 246 244 242 244 198 236 21 193 207 212 210 238 318 277 278 277 287 330 275 299 298 283 287 274 251 282 309 310 302 304 304 303 300 320
208 200 195 195 192 196 186 183 181 181 172 174 174 170 168 169 173 177 174 178 170 172 180 180 183 180 184 187 177 180 182 175 186 181 193 192 201 196 197 215 224 194 190 205 211 210 219 218 226 222 230 236 250 288 294 239 219 212 223 240 282 267 300 259 257 267 278 300 291 280 275 286 294 290 288 285 284 287 287 299 304 314 307 312 303
207 206 198 195 192 192 186 184 182 177 175 175 176 175 171 172 172 181 178 179 171 174 180 182 185 185 187 188 186 185 184 178 186 183 186 190 204 204 199 205 224 229 208 184 202 205 205 214 232 221 238 240 240 252 236 238 214 210 209 178 224 244 258 284 271 262 267 284 279 267 268 264 267 281 289 305 306 297 302 302 300 300 306 303 294
203 209 204 188 186 189 189 190 181 179 178 179 179 177 176 174 174 180 182 183 176 177 181 184 188 189 194 191 192 192 191 189 189 187 189 194 203 208 218 213 218 213 219 213 205 205 195 206 220 238 230 238 233 234 257 256 257 246 230 220 222 215 247 260 288 299 289 266 266 277 272 280 285 279 284 281 270 289 303 301 297 299 291 292 302
199 204 208 191 187 187 190 187 184 182 183 185 183 179 177 178 176 180 184 186 182 181 183 186 190 191 195 193 194 196 195 194 189 194 194 199 203 204 196 209 204 218 218 219 206 214 199 202 222 233 231 241 272 301 271 257 266 269 258 248 244 245 238 249 269 281 292 308 308 304 295 291 292 298 296 297 303 306 285 284 299 312 304 299 302
206 199 205 196 189 191 188 185 185 187 187 186 188 182 178 181 180 183 184 187 186 187 185 188 192 193 195 196 193 192 195 197 198 203 200 197 199 205 201 199 197 212 207 210 232 211 208 195 204 218 225 232 232 240 254 263 262 268 256 254 258 249 265 256 257 269 275 270 274 292 298 301 298 299 297 294 296 297 296 300 309 310 310 310 330
213 205 203 201 194 195 189 188 187 189 191 187 188 185 182 183 183 186 184 186 187 191 190 190 191 194 192 198 197 193 194 198 201 209 204 199 202 193 207 210 198 196 204 203 208 228 225 210 202 219 213 223 230 234 234 221 233 245 260 268 279 268 259 277 279 274 272 274 268 266 280 288 306 305 297 299 291 294 304 311 317 313 310 303 294
223 208 206 205 197 198 193 191 191 191 191 192 189 185 188 186 185 190 188 185 186 190 193 195 196 194 192 195 199 199 198 202 197 202 210 217 205 218 192 219 241 183 203 207 200 210 210 216 208 218 223 224 222 230 242 247 223 241 252 257 255 259 257 256 261 266 275 278 279 284 282 280 281 285 296 301 306 311 312 309 301 295 304 304 303
237 227 207 207 200 199 200 194 194 193 191 193 192 187 189 185 186 189 192 190 189 190 193 196 197 199 196 196 198 198 201 208 203 199 207 201 211 212 210 208 205 219 216 201 212 200 213 218 224 229 206 221 239 238 245 235 233 243 240 241 258 266 276 267 274 277 276 280 277 274 277 277 283 332 330 330 325 315 303 301 299 298 301 294 297
228 232 220 212 201 196 206 201 200 196 194 193 192 192 188 190 188 187 191 194 192 191 194 195 196 200 199 201 202 205 205 209 214 206 204 204 199 211 219 206 213 210 213 221 193 194 197 213 229 228 236 229 235 243 228 227 225 241 243 241 249 263 258 264 262 273 272 275 277 275 285 310 15 308 278 280 265 277 284 285 290 295 290 285 294
209 224 220 214 209 202 203 207 206 200 200 196 187 191 196 197 197 193 193 194 195 193 195 195 196 200 201 202 202 204 210 210 212 214 212 207 209 200 211 210 211 210 205 213 224 215 200 198 213 223 212 221 223 231 230 231 230 241 248 252 238 234 246 256 266 257 261 262 317 347 12 286 265 289 268 269 285 286 290 296 290 274 273 280 284
189 196 211 224 220 211 208 207 211 204 200 203 185 194 201 201 200 204 197 194 197 198 195 200 198 200 202 202 204 206 208 213 211 209 212 211 213 216 206 203 211 212 204 200 219 228 220 215 208 214 222 222 214 218 214 206 217 240 252 253 265 239 238 249 263 265 270 58 56 283 267 272 280 282 290 288 284 278 284 286 286 289 285 279 274
195 189 194 212 226 221 215 204 203 206 197 197 197 195 199 202 205 208 204 200 197 201 198 201 203 202 203 204 204 204 208 208 211 206 216 215 213 215 209 215 205 215 215 209 215 222 226 227 238 242 233 225 224 245 262 256 225 229 239 254 270 275 272 269 267 285 353 59 340 256 264 275 283 277 283 287 284 283 277 274 273 269 266 267 268
242 226 194 200 213 226 225 211 199 202 201 202 201 189 190 196 202 206 211 212 204 199 200 196 206 207 208 205 207 203 206 209 211 207 210 213 213 207 212 210 216 212 221 222 221 223 215 223 233 228 237 239 229 222 224 236 228 217 235 236 231 250 312 345 321 352 339 352 285 292 290 280 269 273 277 280 278 276 272 275 275 280 273 271 275
259 219 215 194 195 204 218 212 200 201 201 201 200 195 194 193 197 196 200 214 220 206 199 197 202 208 209 211 210 205 203 210 213 216 212 214 207 210 206 214 217 220 210 221 218 221 225 225 233 242 244 250 267 272 271 253 235 238 242 263 51 76 175 217 223 81 315 275 274 253 258 266 266 269 270 269 278 293 296 302 309 302 317 309 286
259 244 212 204 180 175 200 205 194 196 193 197 202 199 200 197 195 192 197 201 212 216 202 197 202 207 208 209 209 214 207 207 212 216 221 219 220 212 210 220 222 224 223 206 219 228 216 213 232 236 240 236 232 240 253 283 269 237 248 241 161 188 196 200 197 177 188 220 239 248 256 262 264 266 271 279 278 273 278 289 289 276 238 267 300
269 240 226 210 204 181 190 202 205 204 198 197 198 199 203 205 194 201 201 196 197 211 207 198 204 207 206 208 211 210 211 212 216 216 218 218 222 221 217 225 226 230 231 224 206 216 225 224 232 233 231 230 227 220 226 239 258 254 230 231 209 204 201 195 177 185 205 220 222 234 250 259 266 271 268 264 267 271 273 286 285 275 252 234 242
291 256 229 226 210 193 177 191 212 209 203 199 201 202 203 208 203 202 198 194 193 202 200 195 197 204 207 207 211 214 214 214 222 224 223 223 221 223 226 221 226 232 234 231 226 222 219 221 232 245 252 249 245 226 218 230 250 253 230 226 240 245 231 218 205 193 208 222 233 234 244 262 269 265 269 271 267 262 272 273 275 283 289 283 298
312 281 241 222 216 207 192 160 79 320 227 206 198 205 203 206 211 204 199 195 191 201 197 195 193 193 194 202 207 213 214 216 217 227 225 224 229 228 226 230 225 232 233 232 227 225 233 239 236 238 245 252 271 289 309 286 279 276 261 253 254 250 234 234 222 207 217 218 238 252 263 268 265 269 271 266 257 255 256 255 280 305 285 286 289
214 236 243 232 221 218 195 175 165 170 144 213 194 204 210 213 209 211 203 199 199 198 195 197 191 189 189 189 193 198 209 214 216 222 233 229 230 237 234 228 232 227 230 233 237 231 222 225 229 225 213 209 193 159 46 13 337 319 301 288 280 272 258 248 231 222 245 237 246 247 253 257 264 264 271 270 262 260 253 283 328 331 333 342 314
230 192 204 224 219 197 191 197 181 171 176 185 192 189 201 210 217 212 209 200 191 191 197 194 191 191 190 187 187 187 190 200 209 212 221 229 232 243 247 244 237 240 234 234 236 243 242 231 224 200 163 109 78 55 39 5 352 341 331 298 277 276 258 161 201 218 216 253 254 255 265 289 304 301 291 306 0 25 14 4 309 283 282 306 335
220 152 108 131 226 176 172 183 179 183 195 196 202 207 203 205 206 206 207 200 195 196 196 196 194 191 186 176 168 166 174 179 186 194 206 216 220 223 226 229 237 236 244 246 249 245 245 236 219 195 182 117 80 67 25 1 352 334 320 313 302 281 290 255 233 237 243 262 285 299 26 47 34 38 39 33 19 14 29 12 9 21 32 65 355
123 97 87 77 66 28 15 309 270 243 203 192 190 204 211 212 214 212 206 196 196 200 198 195 201 198 191 178 173 193 185 182 183 184 190 199 206 212 214 215 223 228 234 238 237 237 243 270 251 191 176 108 78 53 9 357 348 339 315 301 284 286 78 41 330 279 203 271 255 286 34 38 32 39 34 35 53 50 76 69 61 58 50 39 28
66 50 51 48 59 75 33 16 0 346 312 264 231 220 226 225 211 209 208 208 205 201 189 182 191 194 180 169 174 198 208 202 195 191 187 184 200 205 204 207 212 215 222 227 231 225 211 201 187 160 85 79 79 40 354 12 356 343 327 315 333 21 10 339 344 92 354 326 66 72 56 38 34 41 58 33 57 60 63 62 58 57 59 52 46
116 97 104 94 62 63 63 67 314 315 309 284 266 245 227 206 198 205 198 199 210 207 195 191 194 185 191 189 178 199 206 208 208 201 192 185 195 198 199 200 207 202 180 208 192 167 174 185 147 105 91 91 83 31 358 10 3 333 318 307 40 38 63 53 60 53 56 57 63 56 57 51 49 76 87 82 63 64 64 63 59 56 60 59 50
125 129 119 104 126 151 138 133 152 199 231 256 295 234 220 189 129 71 227 199 198 203 206 198 201 203 200 197 198 197 202 202 201 196 186 182 184 180 188 182 150 139 143 146 138 167 165 152 125 126 100 72 69 13 353 359 345 339 330 318 87 84 81 71 63 65 69 66 61 64 60 72 86 89 89 85 84 81 79 73 65 58 52 52 53
118 116 106 108 133 148 164 159 153 180 179 195 184 197 176 156 181 176 244 260 247 160 141 168 186 215 208 215 206 198 199 200 192 192 195 188 188 178 181 131 100 123 118 113 123 120 102 107 118 107 100 78 58 16 344 349 356 357 24 69 83 89 83 81 78 80 85 84 81 74 61 57 52 59 76 80 83 88 86 82 74 68 66 62 53
84 90 111 155 140 133 146 148 158 193 159 181 177 187 174 169 189 185 172 192 203 205 188 172 178 192 190 209 235 236 210 188 184 196 203 196 198 173 145 117 113 113 120 117 108 113 116 112 98 92 93 74 62 29 359 4 34 91 93 95 93 85 81 82 90 87 88 88 81 76 79 78 72 73 50 71 96 99 91 88 84 80 78 74 70
135 123 123 119 150 179 160 175 196 179 194 160 144 167 165 162 178 174 165 189 204 213 188 175 180 189 201 208 218 212 182 177 192 197 205 186 131 100 106 122 112 111 104 102 117 116 118 110 104 102 89 69 49 18 24 67 74 85 101 104 100 96 96 94 91 90 84 82 80 84 86 81 66 72 44 63 92 95 88 85 84 82 82 86 87
101 110 112 146 168 165 164 188 182 169 157 126 171 187 170 149 145 134 145 164 174 191 193 197 183 191 175 158 145 144 171 184 183 185 145 106 94 103 111 112 117 118 112 117 118 106 91 91 98 92 81 74 61 41 63 80 90 88 96 102 101 104 102 95 83 73 74 72 71 70 67 73 76 75 40 72 82 91 90 88 87 86 81 78 77
132 133 135 134 109 109 154 159 181 151 124 148 161 153 144 121 113 108 110 116 130 136 105 130 136 132 133 162 163 146 130 129 120 93 95 98 94 94 102 107 111 110 110 120 114 108 98 84 84 87 79 81 83 67 54 66 69 83 102 111 112 109 100 90 86 74 64 63 60 58 55 55 60 55 51 44 62 83 84 87 86 81 79 76 69
99 96 102 105 114 119 113 73 93 126 153 187 177 150 136 130 128 131 124 123 117 124 131 137 112 106 111 119 127 127 131 123 124 107 97 107 119 117 120 117 113 108 109 102 97 89 85 78 74 76 75 80 83 74 47 61 83 103 112 110 107 105 101 98 93 90 81 75 71 68 53 52 60 57 53 50 38 45 93 91 88 80 79 77 72
85 76 76 91 82 67 56 66 121 159 164 163 180 155 129 114 129 124 107 105 105 104 102 103 105 108 110 95 86 110 117 121 123 116 119 122 119 123 126 127 119 113 112 105 96 88 82 70 64 72 80 83 89 84 49 47 55 68 82 92 95 94 96 92 91 87 87 84 81 77 70 62 68 64 63 57 54 46 48 63 63 64 48 48 67
87 80 87 86 85 79 69 46 15 53 150 179 174 134 125 130 119 105 101 102 104 102 103 99 87 79 88 102 110 110 109 108 112 110 111 107 109 103 90 105 111 117 116 109 106 100 93 84 82 86 89 86 80 72 86 50 55 64 76 87 97 93 90 90 87 87 86 88 88 84 77 72 71 69 64 65 61 59 62 71 53 49 40 45 63
93 98 87 91 104 108 96 80 336 209 162 168 137 120 117 110 99 101 107 109 106 105 107 107 108 105 104 102 106 108 105 107 106 102 105 109 113 114 119 110 112 107 104 108 112 114 109 101 104 104 99 95 90 81 68 74 70 73 73 78 96 102 102 97 101 99 98 98 93 88 83 75 73 69 65 62 66 73 72 62 59 50 44 48 57
103 105 100 101 116 117 125 138 130 26 202 135 112 112 111 104 101 102 104 106 106 108 111 108 106 106 105 106 109 111 110 113 115 115 113 116 126 126 120 123 123 122 122 118 118 115 114 115 115 109 107 106 102 97 74 73 78 76 74 72 70 83 93 97 100 100 99 101 100 95 92 87 82 80 75 69 63 60 64 58 60 67 61 49 49
115 113 107 92 107 122 131 130 126 136 116 112 115 112 105 102 103 104 100 102 105 107 107 103 104 109 112 115 110 108 110 112 116 118 120 123 122 121 120 127 126 118 115 114 119 117 111 114 111 111 112 108 102 96 95 80 83 78 75 72 70 72 84 104 105 102 99 98 104 111 103 97 97 95 95 87 75 67 62 58 57 57 61 61 56
114 116 126 116 116 122 128 128 130 131 126 120 120 114 106 108 112 110 109 106 103 100 101 105 111 113 114 114 110 108 108 111 114 113 113 118 120 117 114 118 117 117 120 123 122 117 119 120 116 115 113 111 108 112 112 106 94 85 76 77 79 79 75 72 83 95 102 116 122 119 120 124 124 113 94 83 80 85 89 84 68 59 59 52 43
120 131 136 129 131 135 135 133 125 122 115 114 110 103 105 110 116 128 124 118 111 113 112 115 113 113 112 111 109 112 113 110 109 106 103 102 105 116 119 121 123 124 124 125 124 124 125 123 122 120 118 118 118 120 123 120 119 111 107 102 99 97 103 108 110 123 130 119 107 99 86 85 91 90 98 104 103 111 99 77 67 63 60 58 54
133 149 143 130 135 135 128 116 109 113 115 114 114 115 114 111 114 116 119 121 123 125 125 124 118 113 108 102 98 95 97 87 66 60 67 80 102 110 101 79 76 99 125 126 127 125 120 125 126 127 124 122 122 122 126 130 126 124 121 118 122 125 123 120 119 117 112 111 114 123 126 131 135 130 113 95 87 85 82 77 69 63 58 52 51
136 136 126 129 135 128 122 120 119 118 113 109 107 104 104 106 109 115 122 124 122 124 121 117 114 110 107 110 109 104 99 96 87 73 60 41 18 15 56 77 47 22 0 97 130 120 117 117 128 131 132 126 131 131 106 20 62 58 114 137 141 136 133 123 107 119 127 136 143 136 122 115 109 102 101 94 90 81 70 59 53 49 53 52 41
131 133 130 126 123 121 120 115 111 108 107 107 101 98 102 104 109 115 118 119 121 120 119 115 114 113 112 110 105 101 100 104 105 99 94 75 59 53 28 35 49 18 34 34 42 67 73 125 102 59 53 141 132 102 89 77 77 77 70 67 65 74 93 117 133 161 154 135 123 110 105 97 87 77 80 79 80 77 79 80 75 60 50 44 32
143 137 133 134 131 126 122 116 112 108 103 100 101 102 97 97 103 110 111 108 110 110 110 111 113 109 105 113 113 107 101 100 100 100 95 95 92 60 52 44 39 41 41 39 42 40 41 42 82 104 64 60 82 93 92 94 90 85 84 84 91 97 106 123 164 199 150 116 121 118 110 105 101 90 79 81 70 59 52 52 51 52 42 37 31